User: anonymous   Login
Location: Newark
(49.4900°N, 20.6656°E)
Time: 14:54:45
(UTC+00:00)
Language:

STARLINK-1547 - Orbit

View from above orbital plane
View from above orbital plane
View from above satellite
View from above satellite

Ground track
Ground track

The orbit data is extracted from the following two-line orbital elements,

1 46347C 20062Z   20334.51281094  .00002569  00000-0  28012-4 0  3348
2 46347  52.9978   3.2732 0002353  15.1232 101.2788 15.62732435    16
Epoch (UTC): 29 November 2020 12:18:26
Eccentricity: 0.0002353
inclination: 52.9978°
perigee height: 378 km
apogee height: 381 km
right ascension of ascending node: 3.2732°
argument of perigee: 15.1232°
revolutions per day: 15.62732435
mean anomaly at epoch: 101.2788°
orbit number at epoch: 1

The dashed part of the orbit path shows where the satellite is in the earth's shadow,  

DLR